Tracking 18784 objects as of 17-August-2017
HD Live streaming from Space Station
objects crossing your sky now

CZ-3C R/B

Track CZ-3C R/B now!
10-day predictions


NORAD ID: 36591
Int'l Code: 2010-024B
Perigee: 225.5 km
Apogee: 17,376.3 km
Inclination: 20.6 °
Period: 310.0 minutes
Semi major axis: 15171 km
RCS: 15.0139 m2 (large)
Launch date: June 2, 2010
Source: People's Republic of China (PRC)
Launch site: Xichang Space Center, China (XSC)

Note: This is a ROCKET BODY
Your satellite tracking list
Your tracking list is empty





NASA's NSSDC Master Catalog

Two Line Element Set (TLE):
1 36591U 10024B   17228.45258401  .00011657  00000-0  49951-3 0  9991
2 36591  20.6410 197.0370 5652173  55.9560 345.5442  4.64562657 89565
Source of the keplerian elements: AFSPC